| Date | Time | Temp. (oF) | Dew Point (oF) | Rel. Hum. (%) | Press. (in.) | Wind Dir. | Wind Speed (mph) | Hourly Rainfall (in.) |
|
|---|---|---|---|---|---|---|---|---|---|
| 1 | 11/27 | 00:00 | 35 | 26 | 71 | 30.01 | SSW | 2 | 0.00 |
| 2 | 11/26 | 23:00 | 36 | 26 | 69 | 30.01 | SSW | 5 | 0.00 |
| 3 | 11/26 | 22:00 | 35 | 26 | 71 | 30.02 | SW | 2 | 0.00 |
| 4 | 11/26 | 21:00 | 35 | 26 | 71 | 30.02 | SW | 2 | 0.00 |
| 5 | 11/26 | 20:00 | 35 | 26 | 72 | 30.02 | SSW | 3 | 0.00 |
| 6 | 11/26 | 19:00 | 36 | 27 | 71 | 30.01 | SW | 4 | 0.00 |
| 7 | 11/26 | 18:00 | 36 | 27 | 72 | 29.99 | WSW | 5 | 0.00 |
| 8 | 11/26 | 17:00 | 38 | 28 | 69 | 29.99 | SW | 9 | 0.00 |
| 9 | 11/26 | 16:00 | 39 | 28 | 66 | 29.98 | SW | 7 | 0.00 |
| 10 | 11/26 | 15:00 | 40 | 29 | 65 | 29.97 | SW | 8 | 0.00 |
| 11 | 11/26 | 14:00 | 41 | 30 | 65 | 29.95 | WNW | 9 | 0.00 |
| 12 | 11/26 | 13:00 | 43 | 30 | 61 | 29.95 | WSW | 10 | 0.00 |
| 13 | 11/26 | 12:00 | 42 | 30 | 64 | 29.95 | SW | 13 | 0.00 |
| 14 | 11/26 | 11:00 | 41 | 30 | 66 | 29.96 | W | 8 | 0.00 |
| 15 | 11/26 | 10:00 | 42 | 31 | 66 | 29.95 | WSW | 8 | 0.00 |
| 16 | 11/26 | 09:00 | 41 | 30 | 65 | 29.94 | WNW | 8 | 0.00 |
| 17 | 11/26 | 08:00 | 39 | 30 | 71 | 29.92 | WSW | 8 | 0.00 |
| 18 | 11/26 | 07:00 | 38 | 30 | 75 | 29.90 | WSW | 5 | 0.00 |
| 19 | 11/26 | 06:00 | 37 | 31 | 79 | 29.88 | WSW | 3 | 0.00 |
| 20 | 11/26 | 05:00 | 37 | 30 | 78 | 29.86 | WNW | 5 | 0.00 |
| 21 | 11/26 | 04:00 | 37 | 31 | 79 | 29.84 | SW | 6 | 0.00 |
| 22 | 11/26 | 03:00 | 37 | 31 | 80 | 29.83 | SW | 4 | 0.00 |
| 23 | 11/26 | 02:00 | 38 | 31 | 76 | 29.80 | WSW | 6 | 0.00 |
| 24 | 11/26 | 01:00 | 38 | 30 | 75 | 29.78 | SSW | 6 | 0.00 |